[[{"header":{"parameterUnit":"m.s-1","parameterCategory":2,"la1":30.2991,"la2":30.254,"lo1":-89.0895,"lo2":-89.0444,"dx":0.0017,"dy":0.0017,"nx":28,"ny":28,"refTime":"2023-01-17T09:00:00:Z","depth":"0","parameterNumber":2,"parameterNumberName":"U-component_of_CURRENTS"},"data":[0,0,0,0,0,0,0,0,0,0,0,0,0,0,0,0,0,0,0,0,0,0,0,0,0,0,0,0,0,0,0,0,0,0,0,0,0,0,0,0,0,0,0,0,0,0,0,0,0,0,0,0,0,0,0,0,0,0,0.1427,0.1427,0,0.1459,0.146,0.146,0.1462,0.1462,0.1462,0.1462,0.1469,0.147,0.147,0,0,0,0,0,0,0,0,0,0,0,0,0,0.1365,0.1366,0.1427,0.1427,0.1428,0.1459,0.146,0.146,0.1462,0.1462,0.1462,0.1461,0.1469,0.147,0.147,0,0,0,0,0,0,0,0,0,0,0,0,0,0.1392,0.1366,0.1427,0.1434,0.1435,0.1459,0.146,0.146,0.1462,0.1462,0.1462,0.1461,0.1469,0.147,0.147,0.148,0,0,0.1472,0.1472,0,0,0,0,0,0,0,0,0.1391,0.1394,0.1432,0.1434,0.1435,0.1458,0.1441,0.1466,0.1462,0.145,0.1462,0.1461,0.1465,0.1466,0.147,0.148,0.148,0.1472,0.1472,0.1473,0.1473,0,0,0,0,0,0,0,0.1389,0.1393,0.1438,0.1433,0.1435,0.1435,0.1439,0.1445,0.1457,0.1451,0.1452,0.1458,0.1465,0.147,0.147,0.1481,0.1472,0.1473,0.1473,0.1473,0.1525,0.1526,0,0,0,0,0,0,0.1389,0.1391,0.1437,0.1439,0.1414,0.1437,0.1441,0.1449,0.1457,0.1459,0.1459,0.1458,0.1469,0.147,0.1471,0.1498,0.1473,0.1473,0.1474,0.1524,0.1526,0.1527,0,0,0,0,0,0,0.1388,0.1393,0.1435,0.1417,0.1423,0.1438,0.1448,0.145,0.1459,0.1464,0.1464,0.1466,0.1469,0.147,0.1487,0.1498,0.1473,0.1474,0.1523,0.1525,0.1526,0.1543,0,0,0,0,0,0,0.1386,0.1392,0.1399,0.1417,0.1424,0.1456,0.1449,0.1451,0.1464,0.1464,0.147,0.147,0.1468,0.1486,0.1488,0.1498,0.1474,0.1522,0.1524,0.1526,0.1541,0.1545,0.1548,0,0,0,0,0,0.1383,0.1394,0.1399,0.1404,0.1432,0.1457,0.146,0.1469,0.1465,0.1474,0.148,0.147,0.1499,0.1488,0.1489,0.15,0.1521,0.1523,0.1526,0.154,0.1544,0.1548,0,0,0,0,0,0,0.1369,0.1396,0.1401,0.1419,0.144,0.1458,0.1468,0.1473,0.1485,0.1484,0.1483,0.1484,0.1504,0.1503,0.149,0.1523,0.1509,0.1512,0.1519,0.1524,0.1527,0.1527,0.1475,0,0,0,0,0,0.1371,0.1386,0.1411,0.1425,0.1437,0.1453,0.1463,0.1471,0.1485,0.149,0.1494,0.1502,0.1515,0.152,0.153,0.1546,0.1597,0.1556,0.156,0.1563,0.1565,0.1646,0.1657,0.1535,0.1534,0.1534,0,0,0.1368,0.1386,0.1394,0.1424,0.1439,0.1457,0.1458,0.1479,0.1492,0.1489,0.1505,0.1514,0.1523,0.1543,0.1552,0.1543,0.1635,0.1566,0.1568,0.1569,0.1649,0.1661,0.1672,0.1536,0.1536,0.1536,0,0,0.1374,0.139,0.1404,0.1423,0.1452,0.1464,0.1472,0.1495,0.1503,0.1524,0.1526,0.1543,0.1559,0.1569,0.1575,0.1606,0.1652,0.161,0.1626,0.1704,0.1715,0.1725,0.1852,0.1873,0.1611,0.1611,0.1611,0,0.1368,0.1393,0.1412,0.1432,0.1448,0.1468,0.1486,0.15,0.1524,0.154,0.1532,0.1577,0.1571,0.1608,0.161,0.1612,0.1686,0.1606,0.1709,0.172,0.173,0.1857,0.188,0.1612,0.1612,0.1611,0.1611,0,0.1386,0.1406,0.1418,0.1448,0.1467,0.1489,0.1512,0.1532,0.1544,0.156,0.1602,0.1609,0.1646,0.1637,0.1625,0.169,0.1734,0.1706,0.1698,0.1743,0.1875,0.1899,0.1613,0.1613,0.1613,0.1612,0,0,0.1373,0.1421,0.1424,0.1445,0.1479,0.1499,0.1524,0.1562,0.1602,0.1613,0.1676,0.1666,0.169,0.1699,0.1702,0.174,0.1871,0.175,0.1753,0.1877,0.2101,0.2139,0.2169,0.1869,0.1872,0.1874,0.2183,0,0.1382,0.1418,0.144,0.1476,0.1498,0.1527,0.1554,0.1589,0.163,0.1699,0.1712,0.1776,0.1712,0.1758,0.1782,0.186,0.1927,0.1793,0.2038,0.2046,0.2073,0.2193,0.2174,0.2446,0.2206,0.221,0.2213,0,0.1391,0.1417,0.1449,0.1502,0.1516,0.1541,0.1612,0.1647,0.1732,0.1775,0.1835,0.1876,0.1954,0.1893,0.2047,0.1975,0.2039,0.208,0.2093,0.2132,0.2125,0.2353,0.2498,0.2444,0.2249,0.2246,0.2244,0,0.1373,0.1424,0.1452,0.1468,0.1527,0.1554,0.1594,0.1668,0.1727,0.1858,0.1943,0.2022,0.212,0.2182,0.2257,0.2185,0.2445,0.2366,0.2465,0.2472,0.2503,0.2506,0.2618,0.248,0.2479,0.2478,0.2478,0,0.1373,0.1395,0.1451,0.1466,0.1517,0.1561,0.1641,0.1698,0.1819,0.1921,0.1998,0.2118,0.2194,0.2336,0.2361,0.2525,0.255,0.2514,0.2558,0.2514,0.2513,0.2501,0.245,0.249,0.2487,0.2485,0.2483,0,0.1352,0.138,0.1423,0.1488,0.1509,0.1554,0.1665,0.1741,0.1858,0.2013,0.2076,0.2256,0.2459,0.2546,0.271,0.2701,0.277,0.2858,0.2827,0.2858,0.285,0.2801,0.282,0.2731,0.3041,0.3044,0.3047,0,0.1346,0.1365,0.1435,0.1463,0.1495,0.157,0.1629,0.1746,0.1845,0.209,0.218,0.2432,0.2596,0.2888,0.2956,0.3104,0.2925,0.314,0.2954,0.2894,0.2872,0.2656,0.256,0.3041,0.3043,0.3045,0.3047,0,0.1351,0.1376,0.1416,0.1475,0.1533,0.1604,0.1706,0.1777,0.1946,0.2089,0.2318,0.2479,0.2798,0.2968,0.3166,0.3212,0.3007,0.3178,0.3123,0.2901,0.2669,0.2589,0.2822,0.3062,0.3061,0.3059,0.3059,0.3058,0.1369,0.1393,0.1451,0.1503,0.1559,0.1631,0.1678,0.1811,0.1956,0.216,0.2344,0.2569,0.2896,0.3182,0.3208,0.3276,0.3133,0.3208,0.3175,0.2976,0.2801,0.3088,0.3343,0.3343,0.3343,0.3343,0.3343,0,0.1393,0.1421,0.1476,0.1536,0.158,0.1617,0.1724,0.1771,0.1907,0.2136,0.2326,0.2705,0.2931,0.3128,0.3346,0.3294,0.305,0.3222,0.2912,0.2829,0.3145,0.3053,0.3246,0.3246,0.3246,0.3246,0.3246,0.3246,0.1417,0.1464,0.1486,0.1547,0.1573,0.1622,0.1659,0.1735,0.187,0.2122,0.2346,0.2554,0.2966,0.3286,0.3342,0.3269,0.2983,0.2905,0.28,0.3047,0.304,0.3033,0.2933,0.3098,0.3098,0.2361,0.2356,0.2352]},{"header":{"parameterUnit":"m.s-1","parameterCategory":2,"la1":30.2991,"la2":30.254,"lo1":-89.0895,"lo2":-89.0444,"dx":0.0017,"dy":0.0017,"nx":28,"ny":28,"refTime":"2023-01-17T09:00:00:Z","depth":"0","parameterNumber":3,"parameterNumberName":"V-component_of_CURRENTS"},"data":[0,0,0,0,0,0,0,0,0,0,0,0,0,0,0,0,0,0,0,0,0,0,0,0,0,0,0,0,0,0,0,0,0,0,0,0,0,0,0,0,0,0,0,0,0,0,0,0,0,0,0,0,0,0,0,0,0,0,-0.0007,-0.0008,0,-0.0049,-0.0049,-0.005,-0.0077,-0.0077,-0.0077,-0.0077,-0.0149,-0.0151,-0.0153,0,0,0,0,0,0,0,0,0,0,0,0,0,0.0024,0.0024,-0.0007,-0.0008,-0.0008,-0.0049,-0.0049,-0.005,-0.0077,-0.0077,-0.0077,-0.0077,-0.0149,-0.0151,-0.0153,0,0,0,0,0,0,0,0,0,0,0,0,0,-0.0,0.0024,-0.0007,-0.0027,-0.0029,-0.0049,-0.0049,-0.005,-0.0077,-0.0077,-0.0077,-0.0078,-0.0148,-0.0151,-0.0153,-0.0164,0,0,-0.0161,-0.0162,0,0,0,0,0,0,0,0,0.0001,-0.0001,-0.0023,-0.0025,-0.0028,-0.0058,-0.0065,-0.009,-0.0077,-0.0058,-0.0077,-0.0078,-0.0122,-0.0126,-0.0133,-0.0167,-0.017,-0.0161,-0.0163,-0.0164,-0.0165,0,0,0,0,0,0,0,0.0003,0.0,-0.0023,-0.0024,-0.0027,-0.0042,-0.0045,-0.0069,-0.0088,-0.006,-0.0062,-0.0067,-0.0123,-0.013,-0.0135,-0.0171,-0.0161,-0.0164,-0.0165,-0.0166,-0.0224,-0.0224,0,0,0,0,0,0,0.0009,0.0002,-0.0022,-0.0025,-0.0014,-0.0042,-0.0046,-0.0048,-0.0087,-0.0094,-0.0067,-0.0068,-0.0126,-0.0132,-0.0138,-0.0162,-0.0164,-0.0167,-0.0168,-0.0224,-0.0224,-0.0224,0,0,0,0,0,0,0.001,0.0008,-0.0021,-0.0013,-0.0017,-0.0042,-0.0044,-0.0049,-0.0057,-0.0092,-0.0099,-0.0071,-0.0126,-0.0134,-0.016,-0.0165,-0.0168,-0.017,-0.0224,-0.0224,-0.0224,-0.0205,0,0,0,0,0,0,0.0011,0.0008,0.0009,-0.0012,-0.0018,-0.003,-0.0044,-0.0049,-0.006,-0.0062,-0.0098,-0.0105,-0.0127,-0.0156,-0.0163,-0.0168,-0.0172,-0.0224,-0.0224,-0.0224,-0.0206,-0.0204,-0.0203,0,0,0,0,0,0.0013,0.0016,0.0009,0.0006,-0.0016,-0.003,-0.0034,-0.0053,-0.0059,-0.0062,-0.0087,-0.0104,-0.016,-0.0158,-0.0166,-0.0173,-0.0224,-0.0224,-0.0224,-0.0206,-0.0205,-0.0203,0,0,0,0,0,0,0.0032,0.0013,0.0005,0.0003,-0.0012,-0.0035,-0.0039,-0.0051,-0.0072,-0.0075,-0.0106,-0.0115,-0.014,-0.0156,-0.0153,-0.0188,-0.0194,-0.0195,-0.0178,-0.0176,-0.0175,-0.0164,-0.0174,0,0,0,0,0,0.0037,0.0033,0.0013,0.0011,0.0005,-0.0016,-0.0024,-0.0036,-0.0057,-0.0066,-0.0092,-0.0118,-0.0145,-0.016,-0.0184,-0.0204,-0.0196,-0.0212,-0.021,-0.0209,-0.0205,-0.0208,-0.0207,-0.0223,-0.0223,-0.0223,0,0,0.0043,0.0032,0.003,0.0014,0.0002,-0.0006,-0.0021,-0.0031,-0.004,-0.0072,-0.0091,-0.0116,-0.0149,-0.0173,-0.0185,-0.0187,-0.0194,-0.0209,-0.0208,-0.0204,-0.0208,-0.0206,-0.0205,-0.0223,-0.0223,-0.0223,0,0,0.0054,0.0046,0.0046,0.0035,0.0017,0.0004,0.0002,-0.0019,-0.0032,-0.0052,-0.0079,-0.0106,-0.0141,-0.0169,-0.0187,-0.0193,-0.0189,-0.0197,-0.0184,-0.0187,-0.0185,-0.0184,-0.0143,-0.0138,-0.0196,-0.0196,-0.0196,0,0.0064,0.006,0.0044,0.004,0.0034,0.001,0.0009,-0.0008,-0.0036,-0.004,-0.0055,-0.0103,-0.0142,-0.0167,-0.0177,-0.0192,-0.0172,-0.0188,-0.0185,-0.0183,-0.0182,-0.0141,-0.0136,-0.0195,-0.0195,-0.0195,-0.0195,0,0.0073,0.0069,0.0069,0.0057,0.0048,0.0044,0.0021,0.0012,-0.0005,-0.002,-0.0043,-0.009,-0.0108,-0.0136,-0.0166,-0.0178,-0.0157,-0.0183,-0.0187,-0.0179,-0.0136,-0.0131,-0.0193,-0.0194,-0.0194,-0.0194,0,0,0.0097,0.008,0.008,0.0085,0.0057,0.006,0.0042,0.003,0.0055,0.0,0.003,-0.0063,-0.0069,-0.009,-0.0125,-0.015,-0.0135,-0.0163,-0.0163,-0.0117,-0.0099,-0.0108,-0.0104,-0.0157,-0.0157,-0.0156,-0.0061,0,0.011,0.0114,0.0096,0.0105,0.0109,0.0086,0.0091,0.0078,0.0073,0.01,0.0034,0.0053,-0.0055,-0.0032,-0.0089,-0.0108,-0.0126,-0.0156,-0.0117,-0.0115,-0.0122,-0.0101,-0.0136,-0.0057,-0.0056,-0.0055,-0.0055,0,0.0125,0.0128,0.0138,0.0153,0.0156,0.0164,0.0191,0.0197,0.0208,0.0216,0.0194,0.0176,0.0134,0.0063,-0.0009,-0.0016,-0.0061,-0.0095,-0.0092,-0.0107,-0.0117,-0.0071,-0.0048,-0.0243,-0.0047,-0.0048,-0.0048,0,0.016,0.016,0.0175,0.0174,0.0185,0.02,0.0219,0.0236,0.0296,0.0323,0.0399,0.0308,0.0351,0.0229,0.0129,0.0079,0.0082,0.0013,-0.0038,-0.0036,-0.0063,-0.0065,-0.0225,-0.0034,-0.0034,-0.0034,-0.0034,0,0.0182,0.0197,0.0203,0.0215,0.0278,0.0265,0.0358,0.0367,0.045,0.0563,0.0487,0.0578,0.0396,0.037,0.0213,0.0121,0.0149,-0.0021,-0.002,-0.0055,-0.0057,-0.0226,-0.0318,-0.0031,-0.0031,-0.0032,-0.0033,0,0.0229,0.0212,0.0257,0.0283,0.0298,0.0362,0.0476,0.0572,0.0624,0.0784,0.0819,0.0827,0.0777,0.0597,0.0462,0.0293,0.0069,0.0129,0.0121,0.0117,-0.0162,-0.0248,-0.0347,-0.043,0.0081,0.0081,0.0081,0,0.0253,0.0278,0.0335,0.0392,0.0414,0.0505,0.0597,0.0659,0.0779,0.0943,0.1049,0.1065,0.1089,0.0891,0.0571,0.0324,0.0128,0.0152,0.0008,-0.0174,-0.0269,-0.0334,-0.0402,0.0005,0.0005,0.0004,0.0004,0,0.0354,0.0379,0.0438,0.0545,0.064,0.0747,0.0873,0.0988,0.11,0.1229,0.1405,0.1445,0.1249,0.0985,0.0639,0.0429,-0.0,0.0137,-0.0063,-0.0352,-0.042,-0.0498,-0.0029,0.0001,0.0001,0.0001,0.0002,0.0002,0.048,0.056,0.0657,0.0759,0.0851,0.0995,0.1125,0.1268,0.1461,0.1661,0.1665,0.1737,0.135,0.0852,0.0548,-0.0035,-0.002,-0.023,-0.0312,-0.0354,-0.0484,-0.0004,0.0019,0.002,0.002,0.002,0.0021,0,0.0673,0.0754,0.087,0.1007,0.1124,0.113,0.1328,0.148,0.1711,0.1823,0.1951,0.1789,0.1279,0.0744,-0.0011,-0.0411,-0.0582,-0.0628,-0.0767,-0.0812,-0.0395,-0.0456,-0.0523,-0.0523,-0.0523,-0.0522,-0.0522,-0.0522,0.0808,0.0972,0.1021,0.1243,0.1315,0.1498,0.1615,0.1815,0.1934,0.2115,0.2119,0.2116,0.1744,0.0344,-0.0618,-0.0852,-0.1118,-0.1172,-0.128,-0.1058,-0.1029,-0.1002,-0.1086,-0.1283,-0.1284,-0.1691,-0.1695,-0.1699]}],[{"header":{"parameterUnit":"m.s-1","parameterCategory":2,"la1":30.2991,"la2":30.254,"lo1":-89.0895,"lo2":-89.0444,"dx":0.0017,"dy":0.0017,"nx":28,"ny":28,"refTime":"2023-01-17T09:00:00:Z","depth":"2","parameterNumber":2,"parameterNumberName":"U-component_of_CURRENTS"},"data":[0,0,0,0,0,0,0,0,0,0,0,0,0,0,0,0,0,0,0,0,0,0,0,0,0,0,0,0,0,0,0,0,0,0,0,0,0,0,0,0,0,0,0,0,0,0,0,0,0,0,0,0,0,0,0,0,0,0,0.1396,0.1396,0,0.143,0.143,0.143,0.1433,0.1433,0.1433,0.1433,0.1444,0.1444,0.1445,0,0,0,0,0,0,0,0,0,0,0,0,0,0.1335,0.1336,0.1396,0.1396,0.1397,0.143,0.143,0.143,0.1433,0.1433,0.1433,0.1433,0.1444,0.1444,0.1445,0,0,0,0,0,0,0,0,0,0,0,0,0,0.1363,0.1336,0.1396,0.1403,0.1405,0.143,0.143,0.143,0.1433,0.1433,0.1433,0.1432,0.1444,0.1444,0.1445,0.1456,0,0,0.1447,0.1448,0,0,0,0,0,0,0,0,0.1361,0.1365,0.1402,0.1403,0.1404,0.1428,0.1413,0.1439,0.1433,0.1421,0.1433,0.1432,0.1438,0.1439,0.1444,0.1457,0.1457,0.1447,0.1448,0.1448,0.1448,0,0,0,0,0,0,0,0.1359,0.1363,0.1408,0.1402,0.1404,0.1406,0.1409,0.1418,0.1429,0.1422,0.1423,0.1429,0.1438,0.1444,0.1445,0.1457,0.1447,0.1448,0.1449,0.1449,0.1506,0.1507,0,0,0,0,0,0,0.1359,0.1362,0.1407,0.1409,0.1383,0.1407,0.1411,0.142,0.143,0.1431,0.1429,0.1429,0.1442,0.1444,0.1445,0.1475,0.1448,0.1449,0.1449,0.1505,0.1506,0.1507,0,0,0,0,0,0,0.1357,0.1362,0.1405,0.1387,0.1393,0.1409,0.1418,0.1421,0.1431,0.1436,0.1437,0.1438,0.1442,0.1444,0.1463,0.1475,0.1449,0.145,0.1504,0.1505,0.1507,0.1526,0,0,0,0,0,0,0.1355,0.1362,0.1369,0.1387,0.1394,0.1428,0.1419,0.1422,0.1436,0.1436,0.1444,0.1444,0.1442,0.1462,0.1464,0.1476,0.1451,0.1502,0.1504,0.1506,0.1524,0.1528,0.1531,0,0,0,0,0,0.1353,0.1364,0.1369,0.1375,0.1403,0.1429,0.1432,0.1441,0.1437,0.1448,0.1454,0.1444,0.1476,0.1464,0.1465,0.1478,0.1501,0.1504,0.1506,0.1522,0.1527,0.1531,0,0,0,0,0,0,0.1341,0.1367,0.1372,0.139,0.1412,0.143,0.1441,0.1446,0.1459,0.1459,0.1457,0.1459,0.148,0.1481,0.1467,0.1502,0.1487,0.149,0.1499,0.1504,0.1507,0.1506,0.1451,0,0,0,0,0,0.1343,0.1358,0.1383,0.1398,0.141,0.1426,0.1437,0.1446,0.146,0.1466,0.147,0.1479,0.1492,0.1498,0.1509,0.1528,0.1574,0.1538,0.1542,0.1545,0.1547,0.1624,0.1635,0.1515,0.1515,0.1515,0,0,0.1341,0.1359,0.1367,0.1397,0.1412,0.1432,0.1432,0.1455,0.1468,0.1465,0.1483,0.1492,0.1501,0.1522,0.1532,0.1523,0.1613,0.1548,0.1551,0.1551,0.1627,0.1639,0.165,0.1517,0.1517,0.1516,0,0,0.1348,0.1364,0.1379,0.1398,0.1428,0.1441,0.1449,0.1473,0.1482,0.1504,0.1505,0.1524,0.1541,0.155,0.1557,0.1589,0.1631,0.1594,0.1611,0.1685,0.1696,0.1706,0.1822,0.1841,0.1595,0.1596,0.1596,0,0.1343,0.1368,0.1388,0.1408,0.1424,0.1445,0.1464,0.1479,0.1504,0.152,0.1513,0.1558,0.1554,0.159,0.1593,0.1596,0.1664,0.159,0.1691,0.1701,0.1711,0.1827,0.1848,0.1597,0.1597,0.1596,0.1596,0,0.1362,0.1382,0.1395,0.1425,0.1445,0.1468,0.1491,0.1514,0.1526,0.1543,0.1585,0.1593,0.1629,0.1622,0.161,0.1674,0.1713,0.1688,0.1679,0.1724,0.1844,0.1866,0.1598,0.1598,0.1598,0.1597,0,0,0.1349,0.1397,0.1401,0.1421,0.1456,0.1477,0.1504,0.1543,0.1583,0.1596,0.1659,0.165,0.1674,0.1683,0.1686,0.1723,0.1846,0.1732,0.1735,0.1847,0.2062,0.1991,0.2009,0.1847,0.185,0.1852,0.2135,0,0.1357,0.1394,0.1417,0.1453,0.1475,0.1505,0.1534,0.157,0.1611,0.168,0.1695,0.1758,0.1695,0.174,0.1763,0.1839,0.1899,0.1775,0.2001,0.2009,0.1938,0.2029,0.1864,0.2092,0.2156,0.216,0.2163,0,0.1366,0.1392,0.1425,0.1478,0.1492,0.1518,0.1589,0.1625,0.1711,0.1754,0.1814,0.1853,0.193,0.1871,0.2016,0.195,0.2005,0.2043,0.2055,0.199,0.1976,0.2049,0.213,0.22,0.2197,0.2194,0.2192,0,0.1347,0.1399,0.1426,0.1442,0.1502,0.153,0.1572,0.1646,0.1702,0.1835,0.1913,0.1995,0.2084,0.2145,0.2199,0.2146,0.2366,0.2316,0.2309,0.2308,0.221,0.2192,0.2418,0.2418,0.2417,0.2416,0.2415,0,0.1345,0.1367,0.1426,0.1441,0.1492,0.1537,0.1615,0.1674,0.1791,0.1886,0.1965,0.2061,0.2154,0.227,0.2293,0.2384,0.2459,0.2343,0.2372,0.2214,0.2195,0.2297,0.2279,0.2427,0.2424,0.2422,0.2421,0,0.1324,0.1352,0.1395,0.1462,0.1484,0.1529,0.1636,0.1707,0.182,0.1965,0.2025,0.2177,0.2334,0.2412,0.2561,0.2524,0.2605,0.2607,0.243,0.243,0.249,0.247,0.2679,0.2678,0.2678,0.2678,0.2678,0,0.1317,0.1335,0.1407,0.1437,0.1471,0.1544,0.16,0.1711,0.1797,0.2014,0.2089,0.2288,0.2389,0.259,0.2603,0.2698,0.2668,0.2562,0.2383,0.2507,0.2516,0.2496,0.2477,0.2309,0.2306,0.2303,0.2301,0,0.132,0.1346,0.1385,0.1441,0.1498,0.1564,0.1657,0.1718,0.1874,0.1992,0.2155,0.2258,0.2453,0.2474,0.2576,0.2564,0.2528,0.2508,0.2737,0.2223,0.2168,0.2172,0.2165,0.2278,0.228,0.2282,0.2283,0.2284,0.1334,0.1357,0.1409,0.1456,0.1514,0.1576,0.1616,0.1718,0.1829,0.1971,0.2099,0.2192,0.229,0.235,0.2337,0.2324,0.2455,0.234,0.2346,0.2354,0.2215,0.2157,0.2245,0.2247,0.2249,0.225,0.2252,0,0.1347,0.1371,0.1422,0.1472,0.1511,0.1558,0.1647,0.1656,0.174,0.1889,0.1982,0.189,0.1966,0.2055,0.2036,0.2057,0.1992,0.1953,0.1872,0.1899,0.1922,0.1754,0.1666,0.1664,0.1662,0.166,0,0,0.1362,0.139,0.1402,0.1447,0.1488,0.153,0.1564,0.1574,0.1644,0.1638,0.1686,0.1849,0.2004,0.1803,0.1812,0.1754,0.1789,0.1674,0.2154,0.2086,0.2105,0.217,0.1946,0,0,0,0,0]},{"header":{"parameterUnit":"m.s-1","parameterCategory":2,"la1":30.2991,"la2":30.254,"lo1":-89.0895,"lo2":-89.0444,"dx":0.0017,"dy":0.0017,"nx":28,"ny":28,"refTime":"2023-01-17T09:00:00:Z","depth":"2","parameterNumber":3,"parameterNumberName":"V-component_of_CURRENTS"},"data":[0,0,0,0,0,0,0,0,0,0,0,0,0,0,0,0,0,0,0,0,0,0,0,0,0,0,0,0,0,0,0,0,0,0,0,0,0,0,0,0,0,0,0,0,0,0,0,0,0,0,0,0,0,0,0,0,0,0,-0.0136,-0.0136,0,-0.0177,-0.0177,-0.0177,-0.0203,-0.0203,-0.0203,-0.0204,-0.0274,-0.0275,-0.0277,0,0,0,0,0,0,0,0,0,0,0,0,0,-0.0104,-0.0104,-0.0136,-0.0136,-0.0137,-0.0176,-0.0177,-0.0178,-0.0203,-0.0203,-0.0203,-0.0204,-0.0273,-0.0275,-0.0277,0,0,0,0,0,0,0,0,0,0,0,0,0,-0.0128,-0.0104,-0.0135,-0.0154,-0.0156,-0.0176,-0.0177,-0.0178,-0.0203,-0.0203,-0.0204,-0.0204,-0.0272,-0.0275,-0.0277,-0.0289,0,0,-0.0285,-0.0286,0,0,0,0,0,0,0,0,-0.0127,-0.013,-0.0151,-0.0153,-0.0155,-0.0185,-0.0192,-0.0216,-0.0203,-0.0185,-0.0204,-0.0204,-0.0247,-0.0251,-0.0258,-0.0292,-0.0295,-0.0286,-0.0287,-0.0288,-0.0289,0,0,0,0,0,0,0,-0.0125,-0.0128,-0.0152,-0.0151,-0.0154,-0.0169,-0.0173,-0.0196,-0.0215,-0.0187,-0.0189,-0.0193,-0.0248,-0.0255,-0.026,-0.0296,-0.0285,-0.0288,-0.0289,-0.029,-0.0346,-0.0346,0,0,0,0,0,0,-0.0119,-0.0126,-0.015,-0.0153,-0.0142,-0.0169,-0.0173,-0.0175,-0.0214,-0.022,-0.0193,-0.0194,-0.0251,-0.0257,-0.0262,-0.0283,-0.0288,-0.0291,-0.0292,-0.0346,-0.0346,-0.0346,0,0,0,0,0,0,-0.0118,-0.0121,-0.0149,-0.0141,-0.0145,-0.0169,-0.0172,-0.0176,-0.0183,-0.0218,-0.0225,-0.0195,-0.0251,-0.0259,-0.0284,-0.0286,-0.0292,-0.0294,-0.0346,-0.0346,-0.0346,-0.0321,0,0,0,0,0,0,-0.0117,-0.012,-0.0119,-0.014,-0.0146,-0.0157,-0.0172,-0.0177,-0.0185,-0.0187,-0.0222,-0.0229,-0.0252,-0.028,-0.0286,-0.0289,-0.0296,-0.0346,-0.0346,-0.0346,-0.0322,-0.032,-0.0318,0,0,0,0,0,-0.0116,-0.0111,-0.0118,-0.0121,-0.0143,-0.0157,-0.0161,-0.0179,-0.0185,-0.0186,-0.0211,-0.0228,-0.0283,-0.0282,-0.0289,-0.0293,-0.0346,-0.0346,-0.0346,-0.0322,-0.032,-0.0318,0,0,0,0,0,0,-0.0095,-0.0114,-0.0122,-0.0123,-0.0138,-0.0161,-0.0164,-0.0175,-0.0195,-0.0198,-0.023,-0.0239,-0.0262,-0.0279,-0.0276,-0.0308,-0.0316,-0.0318,-0.0296,-0.0294,-0.0292,-0.028,-0.0298,0,0,0,0,0,-0.009,-0.0093,-0.0113,-0.0114,-0.0119,-0.014,-0.0148,-0.016,-0.018,-0.0189,-0.0214,-0.024,-0.0267,-0.0281,-0.0305,-0.0323,-0.0324,-0.0329,-0.0327,-0.0326,-0.0321,-0.0331,-0.033,-0.0345,-0.0345,-0.0345,0,0,-0.0082,-0.0093,-0.0095,-0.011,-0.0123,-0.0128,-0.0145,-0.0153,-0.016,-0.0194,-0.021,-0.0237,-0.027,-0.0292,-0.0303,-0.0306,-0.0317,-0.0326,-0.0324,-0.032,-0.0331,-0.0329,-0.0328,-0.0345,-0.0345,-0.0345,0,0,-0.0069,-0.0078,-0.0076,-0.0086,-0.0102,-0.0116,-0.0116,-0.0138,-0.0149,-0.0168,-0.0195,-0.0221,-0.0257,-0.0283,-0.0301,-0.0304,-0.0309,-0.0309,-0.0291,-0.0301,-0.03,-0.0299,-0.0277,-0.0274,-0.0307,-0.0307,-0.0307,0,-0.0058,-0.0061,-0.0078,-0.0079,-0.0084,-0.0108,-0.0106,-0.0122,-0.015,-0.0155,-0.0169,-0.0218,-0.0254,-0.0279,-0.0285,-0.0301,-0.0293,-0.0297,-0.0298,-0.0297,-0.0297,-0.0275,-0.0272,-0.0305,-0.0306,-0.0306,-0.0306,0,-0.0046,-0.0048,-0.0046,-0.0057,-0.0064,-0.0067,-0.0089,-0.0096,-0.0112,-0.0129,-0.0152,-0.0197,-0.0219,-0.0243,-0.027,-0.0283,-0.0273,-0.0296,-0.0302,-0.0294,-0.0271,-0.0268,-0.0304,-0.0304,-0.0304,-0.0305,0,0,-0.002,-0.0034,-0.0034,-0.0029,-0.0052,-0.005,-0.0063,-0.0075,-0.0056,-0.0105,-0.0084,-0.0165,-0.0175,-0.0196,-0.023,-0.0255,-0.025,-0.0271,-0.0272,-0.0244,-0.0241,-0.034,-0.0346,-0.0271,-0.0271,-0.0271,-0.0219,0,-0.0004,0.0003,-0.0013,-0.0002,0.0003,-0.0019,-0.0014,-0.0028,-0.0037,-0.0019,-0.0079,-0.0069,-0.016,-0.0145,-0.0195,-0.0222,-0.0245,-0.026,-0.0257,-0.0257,-0.0343,-0.0349,-0.0322,-0.0285,-0.0217,-0.0217,-0.0216,0,0.0013,0.0017,0.0031,0.0043,0.0046,0.0054,0.0074,0.0078,0.008,0.0083,0.0059,0.0036,-0.0002,-0.0065,-0.0142,-0.0142,-0.0193,-0.0231,-0.023,-0.0331,-0.0353,-0.0288,-0.0284,-0.0213,-0.0213,-0.0213,-0.0213,0,0.0047,0.005,0.0067,0.0067,0.0075,0.009,0.0105,0.0113,0.0153,0.0175,0.0222,0.0149,0.0172,0.0064,-0.0055,-0.0074,-0.0127,-0.0155,-0.0294,-0.0298,-0.0283,-0.0289,-0.0211,-0.0211,-0.0211,-0.0211,-0.0211,0,0.0072,0.0087,0.0092,0.0105,0.0158,0.0147,0.022,0.0228,0.0283,0.0348,0.0295,0.0317,0.0206,0.0147,0.0008,-0.0143,-0.0081,-0.0291,-0.0305,-0.0274,-0.0279,-0.0229,-0.0232,-0.0209,-0.021,-0.021,-0.021,0,0.0114,0.0102,0.0143,0.0165,0.0178,0.0232,0.0315,0.0378,0.0415,0.0508,0.0533,0.0495,0.0392,0.0252,0.0116,-0.0034,-0.0181,-0.0251,-0.0201,-0.0215,-0.0347,-0.0349,-0.0372,-0.0376,-0.0378,-0.0381,-0.0383,0,0.0135,0.0158,0.0208,0.0251,0.0269,0.0343,0.0404,0.0449,0.0513,0.0582,0.0625,0.0583,0.0503,0.0263,0.0021,-0.0205,-0.0233,-0.0327,-0.0402,-0.0359,-0.0369,-0.0367,-0.0365,-0.0334,-0.0336,-0.0337,-0.0338,0,0.0211,0.0235,0.0274,0.0349,0.0416,0.049,0.0565,0.0634,0.0692,0.0742,0.0747,0.0695,0.0474,0.0228,-0.0064,-0.0236,-0.0299,-0.0364,-0.03,-0.0338,-0.0331,-0.0339,-0.0336,-0.0348,-0.0347,-0.0346,-0.0346,-0.0345,0.029,0.0345,0.0401,0.0455,0.0553,0.0629,0.0653,0.0716,0.079,0.0846,0.0807,0.0745,0.0492,0.0089,-0.0175,-0.0408,-0.0418,-0.0493,-0.0484,-0.0476,-0.0521,-0.0525,-0.0582,-0.0582,-0.0583,-0.0583,-0.0583,0,0.0371,0.0429,0.0501,0.0557,0.0641,0.0691,0.0754,0.0713,0.0743,0.0892,0.0866,0.062,0.0368,0.0109,-0.0247,-0.0508,-0.0487,-0.058,-0.0476,-0.0466,-0.0457,-0.0498,-0.0554,-0.0554,-0.0554,-0.0555,0,0,0.0433,0.0468,0.0468,0.0576,0.0681,0.0768,0.08,0.0714,0.0752,0.0785,0.0848,0.0807,0.048,0.0219,-0.0124,-0.0307,-0.032,-0.0356,-0.0358,-0.0185,-0.0172,-0.0397,-0.045,0,0,0,0,0]}],[{"header":{"parameterUnit":"m.s-1","parameterCategory":2,"la1":30.2991,"la2":30.254,"lo1":-89.0895,"lo2":-89.0444,"dx":0.0017,"dy":0.0017,"nx":28,"ny":28,"refTime":"2023-01-17T09:00:00:Z","depth":"4","parameterNumber":2,"parameterNumberName":"U-component_of_CURRENTS"},"data":[0,0,0,0,0,0,0,0,0,0,0,0,0,0,0,0,0,0,0,0,0,0,0,0,0,0,0,0,0,0,0,0,0,0,0,0,0,0,0,0,0,0,0,0,0,0,0,0,0,0,0,0,0,0,0,0,0,0,0.0859,0.086,0,0.0908,0.0908,0.0908,0.0947,0.0948,0.0948,0.0949,0.0993,0.0994,0.0995,0,0,0,0,0,0,0,0,0,0,0,0,0,0.0779,0.0781,0.0859,0.086,0.086,0.0907,0.0908,0.0908,0.0947,0.0948,0.0948,0.0949,0.0993,0.0994,0.0995,0,0,0,0,0,0,0,0,0,0,0,0,0,0.0817,0.0781,0.0859,0.0887,0.089,0.0907,0.0908,0.0908,0.0947,0.0948,0.0949,0.0949,0.0993,0.0994,0.0995,0.0982,0,0,0.0998,0.0998,0,0,0,0,0,0,0,0,0.0815,0.082,0.0882,0.0885,0.0889,0.0924,0.0896,0.0934,0.0947,0.0923,0.0949,0.095,0.0971,0.0974,0.0977,0.0984,0.0986,0.0998,0.0998,0.0999,0.0999,0,0,0,0,0,0,0,0.0812,0.0818,0.0876,0.0883,0.0887,0.0891,0.0897,0.0903,0.0939,0.0925,0.0928,0.0937,0.0972,0.0976,0.0979,0.0987,0.0998,0.0998,0.0999,0.0999,0.1063,0.1064,0,0,0,0,0,0,0.0812,0.0816,0.0874,0.0877,0.0856,0.0892,0.0899,0.091,0.0939,0.0945,0.0937,0.0939,0.0974,0.0978,0.098,0.1045,0.0999,0.0999,0.1,0.1062,0.1063,0.1064,0,0,0,0,0,0,0.081,0.0816,0.0872,0.0849,0.0857,0.0893,0.0905,0.0911,0.0938,0.0949,0.0954,0.0961,0.0975,0.0979,0.1009,0.1044,0.1,0.1001,0.106,0.1062,0.1064,0.1124,0,0,0,0,0,0,0.0807,0.0815,0.0829,0.0849,0.0858,0.0894,0.0904,0.0911,0.0941,0.0946,0.097,0.0974,0.0976,0.1007,0.101,0.1045,0.1001,0.1059,0.1061,0.1063,0.1121,0.1128,0.1134,0,0,0,0,0,0.0804,0.0817,0.083,0.0837,0.0874,0.0895,0.09,0.0926,0.0942,0.0953,0.0977,0.0975,0.1023,0.1009,0.1011,0.1047,0.1058,0.106,0.1063,0.1118,0.1126,0.1134,0,0,0,0,0,0,0.0791,0.0823,0.0837,0.0861,0.0882,0.0903,0.092,0.0936,0.0963,0.0974,0.0985,0.099,0.1029,0.1026,0.101,0.1071,0.1042,0.1045,0.1083,0.1091,0.1097,0.1109,0.1002,0,0,0,0,0,0.0794,0.0814,0.0841,0.0861,0.0875,0.0901,0.0916,0.0934,0.0957,0.0971,0.0992,0.1014,0.1036,0.1054,0.1065,0.1096,0.1096,0.1122,0.1128,0.1134,0.1145,0.1188,0.1199,0.1073,0.1072,0.1072,0,0,0.0793,0.0816,0.0827,0.086,0.0881,0.0903,0.0913,0.0941,0.0969,0.097,0.1019,0.1034,0.1047,0.1086,0.1104,0.1093,0.1165,0.1137,0.1142,0.115,0.1192,0.1204,0.1215,0.1074,0.1074,0.1074,0,0,0.0794,0.0825,0.0838,0.0863,0.09,0.0915,0.0929,0.0963,0.0991,0.1026,0.1044,0.108,0.1108,0.1133,0.1146,0.1192,0.1193,0.1204,0.1256,0.1297,0.1308,0.1318,0.1311,0.132,0.1214,0.1214,0.1214,0,0.0793,0.0822,0.0844,0.0869,0.0894,0.0924,0.0946,0.0976,0.1019,0.1055,0.1049,0.1122,0.1129,0.1192,0.1216,0.1208,0.1223,0.1226,0.1307,0.1316,0.1326,0.1317,0.1326,0.1217,0.1217,0.1216,0.1216,0,0.08,0.0837,0.085,0.0892,0.0914,0.0945,0.0984,0.1029,0.1063,0.1097,0.1167,0.1179,0.1233,0.1239,0.1245,0.1324,0.1309,0.1306,0.1289,0.1342,0.1329,0.1337,0.1222,0.1221,0.122,0.1219,0,0,0.0771,0.0842,0.0851,0.0886,0.0937,0.0959,0.1016,0.108,0.1133,0.1179,0.1241,0.1292,0.1323,0.134,0.1355,0.139,0.1454,0.1391,0.1392,0.1387,0.153,0.1467,0.1469,0.1484,0.1486,0.1488,0.1486,0,0.0777,0.0828,0.0858,0.0917,0.0949,0.1006,0.1055,0.1119,0.1168,0.1235,0.1284,0.1337,0.1355,0.1385,0.1435,0.1443,0.1484,0.1453,0.1477,0.1476,0.1417,0.148,0.1496,0.1492,0.1494,0.1496,0.1497,0,0.0772,0.0817,0.0869,0.0954,0.0973,0.1013,0.111,0.1157,0.1257,0.1295,0.1376,0.1408,0.1484,0.1472,0.1551,0.1541,0.1559,0.1553,0.1554,0.1483,0.143,0.1433,0.1511,0.151,0.1509,0.1508,0.1507,0,0.074,0.0825,0.0872,0.0903,0.0994,0.1047,0.1101,0.1192,0.1241,0.1343,0.1374,0.1473,0.1509,0.1565,0.1592,0.1587,0.1646,0.1625,0.158,0.1572,0.16,0.159,0.1693,0.1693,0.1693,0.1693,0.1693,0,0.0726,0.0773,0.0877,0.0909,0.0988,0.1047,0.1128,0.1199,0.1281,0.1342,0.1416,0.1465,0.1544,0.159,0.1612,0.1623,0.1674,0.1601,0.1585,0.162,0.1613,0.1604,0.1594,0.1693,0.1693,0.1693,0.1693,0,0.068,0.0741,0.082,0.0937,0.0975,0.1038,0.1142,0.1191,0.1273,0.1346,0.138,0.1476,0.1546,0.1592,0.1652,0.1629,0.1642,0.1637,0.1652,0.1634,0.1527,0.152,0.1571,0.1569,0.1568,0.1567,0.1565,0,0.0661,0.0694,0.0835,0.0878,0.0939,0.1033,0.1084,0.1185,0.1227,0.1352,0.1374,0.1473,0.1537,0.1544,0.1614,0.1635,0.1636,0.1605,0.1593,0.1544,0.1523,0.1518,0.1514,0.1563,0.1563,0.1562,0.1562,0,0.0628,0.0689,0.0746,0.0838,0.0908,0.0981,0.1066,0.1089,0.1203,0.1287,0.1351,0.14,0.1469,0.1519,0.1545,0.1565,0.16,0.1588,0.1591,0.158,0.1534,0.1514,0.1511,0.1556,0.1557,0.1558,0.1558,0,0.0603,0.0637,0.0707,0.0785,0.0855,0.09,0.0965,0.1026,0.1084,0.1225,0.1259,0.1366,0.1467,0.1485,0.1518,0.1527,0.1514,0.1455,0.1464,0.1471,0.1446,0.1373,0.1348,0,0,0,0,0,0.0579,0.0591,0.0644,0.0714,0.0775,0.0824,0.0926,0.0987,0.1108,0.1129,0.1191,0.1264,0.1333,0.1389,0.1382,0.1477,0.1507,0.1461,0.144,0.1526,0.1532,0.1515,0,0,0,0,0,0,0.0547,0.0584,0.0613,0.0625,0.0658,0.0717,0.0783,0.0875,0.0895,0.1031,0.1076,0.1187,0.1268,0.1322,0.1355,0.1373,0.1337,0.154,0.1538,0.1522,0.1528,0.1533,0.1518,0,0,0,0,0]},{"header":{"parameterUnit":"m.s-1","parameterCategory":2,"la1":30.2991,"la2":30.254,"lo1":-89.0895,"lo2":-89.0444,"dx":0.0017,"dy":0.0017,"nx":28,"ny":28,"refTime":"2023-01-17T09:00:00:Z","depth":"4","parameterNumber":3,"parameterNumberName":"V-component_of_CURRENTS"},"data":[0,0,0,0,0,0,0,0,0,0,0,0,0,0,0,0,0,0,0,0,0,0,0,0,0,0,0,0,0,0,0,0,0,0,0,0,0,0,0,0,0,0,0,0,0,0,0,0,0,0,0,0,0,0,0,0,0,0,-0.0161,-0.0161,0,-0.0193,-0.0194,-0.0194,-0.0228,-0.0228,-0.0229,-0.0229,-0.0287,-0.0288,-0.0289,0,0,0,0,0,0,0,0,0,0,0,0,0,-0.0143,-0.0143,-0.0161,-0.0161,-0.0161,-0.0193,-0.0194,-0.0194,-0.0228,-0.0228,-0.0229,-0.0229,-0.0287,-0.0288,-0.0289,0,0,0,0,0,0,0,0,0,0,0,0,0,-0.0161,-0.0143,-0.0161,-0.0182,-0.0184,-0.0193,-0.0194,-0.0194,-0.0228,-0.0228,-0.0229,-0.0229,-0.0286,-0.0288,-0.0289,-0.0286,0,0,-0.0295,-0.0295,0,0,0,0,0,0,0,0,-0.016,-0.0161,-0.0178,-0.018,-0.0183,-0.0207,-0.0209,-0.0226,-0.0227,-0.0211,-0.0229,-0.023,-0.0262,-0.0266,-0.027,-0.0289,-0.0292,-0.0295,-0.0296,-0.0297,-0.0297,0,0,0,0,0,0,0,-0.0158,-0.016,-0.0174,-0.0179,-0.0181,-0.0195,-0.0198,-0.0212,-0.0233,-0.0213,-0.0215,-0.0218,-0.0264,-0.0268,-0.0272,-0.0292,-0.0295,-0.0296,-0.0297,-0.0298,-0.0328,-0.0328,0,0,0,0,0,0,-0.0152,-0.0159,-0.0173,-0.0175,-0.0173,-0.0195,-0.0198,-0.0199,-0.0232,-0.0238,-0.0218,-0.022,-0.0265,-0.027,-0.0274,-0.0272,-0.0296,-0.0298,-0.0299,-0.0328,-0.0328,-0.0328,0,0,0,0,0,0,-0.0152,-0.0153,-0.0171,-0.0168,-0.0171,-0.0194,-0.0195,-0.0199,-0.021,-0.0236,-0.0242,-0.0225,-0.0266,-0.0272,-0.0289,-0.0275,-0.0299,-0.03,-0.0329,-0.0328,-0.0328,-0.0269,0,0,0,0,0,0,-0.0151,-0.0153,-0.0154,-0.0167,-0.0171,-0.0171,-0.0194,-0.0199,-0.0211,-0.0214,-0.0244,-0.025,-0.0267,-0.0286,-0.0291,-0.0278,-0.0302,-0.0329,-0.0329,-0.0328,-0.0271,-0.0267,-0.0263,0,0,0,0,0,-0.015,-0.0143,-0.0154,-0.0156,-0.0171,-0.017,-0.0173,-0.0192,-0.021,-0.0207,-0.0233,-0.0249,-0.0287,-0.0287,-0.0293,-0.028,-0.0329,-0.0329,-0.0328,-0.0273,-0.0268,-0.0263,0,0,0,0,0,0,-0.0136,-0.0146,-0.0158,-0.0155,-0.0161,-0.0176,-0.0177,-0.0192,-0.021,-0.0219,-0.0247,-0.0254,-0.0264,-0.0283,-0.0282,-0.0289,-0.031,-0.0311,-0.0267,-0.0262,-0.0258,-0.0253,-0.0303,0,0,0,0,0,-0.0133,-0.0131,-0.0142,-0.014,-0.0143,-0.0162,-0.0167,-0.0179,-0.0195,-0.0204,-0.0225,-0.025,-0.0265,-0.0272,-0.029,-0.0292,-0.0331,-0.0288,-0.0284,-0.028,-0.028,-0.0322,-0.0321,-0.0326,-0.0326,-0.0326,0,0,-0.0127,-0.0133,-0.0133,-0.0138,-0.0147,-0.0135,-0.0167,-0.017,-0.0161,-0.0207,-0.0208,-0.0238,-0.0264,-0.0266,-0.0272,-0.028,-0.0302,-0.028,-0.0276,-0.0279,-0.0321,-0.0321,-0.032,-0.0326,-0.0326,-0.0326,0,0,-0.0102,-0.0119,-0.0104,-0.0106,-0.0115,-0.0122,-0.0122,-0.0136,-0.0145,-0.015,-0.0182,-0.02,-0.0225,-0.0234,-0.0244,-0.0227,-0.0282,-0.024,-0.021,-0.0249,-0.0249,-0.0249,-0.0311,-0.0317,-0.0234,-0.0234,-0.0234,0,-0.0095,-0.008,-0.0099,-0.0084,-0.0081,-0.0112,-0.009,-0.0098,-0.0116,-0.0128,-0.0143,-0.0188,-0.0203,-0.0209,-0.0203,-0.0215,-0.0265,-0.0223,-0.0243,-0.0244,-0.0246,-0.0309,-0.0316,-0.0231,-0.0231,-0.0232,-0.0232,0,-0.0054,-0.0046,-0.0038,-0.0027,-0.0023,-0.0015,-0.0023,-0.0033,-0.0053,-0.0069,-0.0091,-0.0118,-0.0152,-0.0151,-0.017,-0.0185,-0.0229,-0.0235,-0.0253,-0.0242,-0.0309,-0.0318,-0.0227,-0.0228,-0.0229,-0.0229,0,0,-0.0032,-0.0011,-0.0012,-0.0007,0.0004,0.0004,0.0022,0.0018,-0.0002,-0.0014,-0.0039,-0.0044,-0.0087,-0.0102,-0.0131,-0.0153,-0.02,-0.0199,-0.0202,-0.0256,-0.032,-0.0282,-0.0289,-0.0221,-0.0222,-0.0222,-0.0367,0,0.0003,0.004,0.0047,0.0073,0.0087,0.0069,0.008,0.0067,0.0041,0.0003,-0.0022,-0.0058,-0.006,-0.0095,-0.0112,-0.0192,-0.022,-0.0162,-0.0327,-0.0332,-0.0296,-0.0296,-0.0225,-0.0374,-0.0376,-0.0378,-0.0379,0,0.004,0.0056,0.0097,0.0101,0.0103,0.0114,0.0093,0.0097,0.0052,0.0025,-0.0009,-0.0056,-0.0093,-0.0102,-0.0203,-0.0177,-0.0241,-0.0289,-0.0296,-0.0287,-0.031,-0.0388,-0.0396,-0.0395,-0.0394,-0.0392,-0.0391,0,0.0052,0.0083,0.0112,0.0118,0.0127,0.0127,0.0123,0.0096,0.0076,0.0022,-0.002,-0.0067,-0.0124,-0.0187,-0.0275,-0.026,-0.0402,-0.0396,-0.0419,-0.0419,-0.0438,-0.0436,-0.0462,-0.0461,-0.0461,-0.0461,-0.046,0,0.0084,0.0095,0.0109,0.0119,0.0117,0.0128,0.0109,0.009,0.0052,0.0033,-0.0021,-0.0053,-0.0151,-0.0239,-0.0301,-0.0392,-0.0425,-0.0419,-0.0446,-0.0412,-0.0405,-0.0445,-0.0442,-0.0466,-0.0465,-0.0464,-0.0463,0,0.0083,0.0108,0.0117,0.0125,0.0123,0.0113,0.0095,0.0069,0.0043,0.0011,-0.0009,-0.0086,-0.0171,-0.0274,-0.04,-0.0433,-0.0516,-0.0539,-0.052,-0.0544,-0.0508,-0.0499,-0.0585,-0.0584,-0.0584,-0.0584,-0.0584,0,0.008,0.0092,0.0099,0.0085,0.0084,0.0073,0.006,0.0059,0.005,0.0017,0.0002,-0.0096,-0.014,-0.0301,-0.0396,-0.0533,-0.0527,-0.0601,-0.0515,-0.0498,-0.0517,-0.0509,-0.0501,-0.0583,-0.0583,-0.0583,-0.0583,0,0.0036,0.0041,0.003,0.003,0.002,0.0025,0.0025,0.0029,0.0047,0.0019,0.0024,-0.0045,-0.0149,-0.0256,-0.0386,-0.0466,-0.0566,-0.0598,-0.0599,-0.0518,-0.0498,-0.0515,-0.0508,-0.0582,-0.0582,-0.0583,-0.0583,0,-0.0042,-0.0061,-0.0067,-0.0054,-0.0055,-0.0015,-0.0003,0.0019,0.0029,0.0045,0.0055,-0.0032,-0.0085,-0.0223,-0.0324,-0.042,-0.0419,-0.0439,-0.0447,-0.045,-0.0345,-0.0295,-0.0344,0,0,0,0,0,-0.0126,-0.0138,-0.0151,-0.0118,-0.0095,-0.0063,-0.0031,-0.0006,0.005,0.0069,0.0075,0.0014,-0.0107,-0.0175,-0.0258,-0.0338,-0.0469,-0.0442,-0.0504,-0.0578,-0.0579,-0.0472,0,0,0,0,0,0,-0.0203,-0.0231,-0.018,-0.0149,-0.0116,-0.0076,-0.0035,0.0005,0.0032,0.0072,0.001,0.0005,-0.0128,-0.0048,-0.0253,-0.0285,-0.0333,-0.0499,-0.0501,-0.0577,-0.0578,-0.0579,-0.0469,0,0,0,0,0]}]]